Regional Weather Roundup
Issued by NWS Sioux Falls, SD

Home | Current Version | Previous Version | Text Only | Print | Product List | Glossary Off
Versions: 1 2 3 4 5 6 7 8 9 10 11 12 13 14 15 16 17 18 19 20 21 22 23 24 25 26 27 28 29 30 31 32 33 34 35 36 37 38 39 40 41 42 43 44 45 46 47 48 49 50

121
ASUS43 KFSD 011902
RWRFSD

WEATHER ROUNDUP FOR SE SOUTH DAKOTA/SW MINNESOTA/NW IOWA
NATIONAL WEATHER SERVICE SIOUX FALLS SD
200 PM CDT SUN MAY 01 2016

NOTE: "FAIR" INDICATES FEW OR NO CLOUDS BELOW 12,000 FEET WITH NO
SIGNIFICANT WEATHER AND OR OBSTRUCTIONS TO VISIBILITY.


SDZ038>040-050-052>070-012000-
SOUTHEAST SOUTH DAKOTA

CITY           SKY/WX    TMP DP  RH WIND       PRES   REMARKS
BROOKINGS      SUNNY     54  32  43 NE13G20   30.17F
CHAMBERLAIN    NOT AVBL
HURON          SUNNY     57  33  40 N12       30.21F
MADISON        FAIR      52  37  58 NE16      30.18F
MITCHELL       SUNNY     56  38  50 N12G23    30.21F
SIOUX FALLS    PTSUNNY   55  41  59 NE16G23   30.16F
WINNER         FAIR      57  34  41 N22       30.24F
YANKTON        MOSUNNY   52  41  66 NW12      30.18F
$$

MNZ071-072-080-081-089-090-097-098-012000-
SOUTHWEST MINNESOTA

CITY           SKY/WX    TMP DP  RH WIND       PRES   REMARKS
FAIRMONT       CLOUDY    54  39  58 NE14G22   30.11S
JACKSON        CLOUDY    54  37  54 N16       30.12F
LUVERNE        CLOUDY    52  37  58 N13G18    30.16F
MARSHALL       SUNNY     56  33  42 E13G21    30.17F
MONTEVIDEO     MOSUNNY   59  34  38 E13G21    30.19F
REDWOOD FALLS  MOSUNNY   59  33  37 NE10G22   30.15F
TRACY          PTSUNNY   56  37  48 NE10G20   30.16S
WINDOM         MOSUNNY   55  36  47 N15G22    30.13F
WORTHINGTON    CLOUDY    52  41  66 N14G21    30.14F
$$

IAZ001>003-012>014-020>022-031-032-NEZ013-014-SDZ071-012000-
NORTHWEST IOWA

CITY           SKY/WX    TMP DP  RH WIND       PRES   REMARKS
CHEROKEE       DRIZZLE   47  44  89 N13       30.13S
DENISON        LGT RAIN  45  43  93 N13G20    30.10R
ESTHERVILLE    CLOUDY    52  43  71 NE16      30.11F
SIOUX CITY     LGT RAIN  49  43  80 N16       30.15F
SPENCER        CLOUDY    51  41  68 N14       30.12F
STORM LAKE     CLOUDY    45  43  93 N15       30.12S FOG
$$

ABBREVIATIONS USED IN REMARKS
   TC - TEMPERATURE IN CELSIUS
  WCI - WIND CHILL INDEX
   HX - HEAT INDEX
  VSB - VISIBILITY





USA.gov is the U.S. government's official web portal to all federal, state and local government web resources and services.